Location: Middlebury
(44.0153°N, 73.1678°W)
Time: 14:04:47
(UTC-04:00)

QB50P2 - Pass Details

Date: 26 June 2024
Orbit: 562 x 579 km, 98.0° (Epoch: 14 July)

Event Time Altitude Azimuth Distance (km) Brightness Sun altitude
Rises 02:54:29 0° 25° (NNE) 2,764 ? -17.4°
Reaches altitude 10° 02:56:56 10° 38° (NE) 1,861 ? -17.1°
Maximum altitude 03:00:18 25° 95° (E) 1,142 ? -16.8°
Enters shadow 03:03:19 12° 150° (SSE) 1,738 ? -16.6°
